TimeAEST,TemperatureF,Dew PointF,Humidity,Sea Level PressureIn,VisibilityMPH,Wind Direction,Wind SpeedMPH,Gust SpeedMPH,PrecipitationIn,Events,Conditions,WindDirDegrees,DateUTC
12:00 AM,78,72,78,29.82,,South,8.1,,,,,180,2013-01-01 14:00:00
12:00 AM,78.8,73.4,83,29.80,6.2,South,8.1,-,N/A,,Partly Cloudy,180,2013-01-01 14:00:00
12:30 AM,78.8,73.4,83,29.80,5.0,South,10.4,-,N/A,,Scattered Clouds,180,2013-01-01 14:30:00
1:00 AM,78,73,79,29.81,,South,10.4,,,,,190,2013-01-01 15:00:00
1:00 AM,77.0,73.4,89,29.80,3.7,South,10.4,-,N/A,Rain,Light Rain Showers,190,2013-01-01 15:00:00
1:30 AM,77.0,73.4,89,29.77,3.7,South,9.2,-,N/A,Rain,Light Rain Showers,180,2013-01-01 15:30:00
2:00 AM,77.0,73.4,89,29.77,5.0,South,9.2,-,N/A,,Scattered Clouds,190,2013-01-01 16:00:00
2:30 AM,77.0,73.4,89,29.77,6.2,South,12.7,-,N/A,,Scattered Clouds,190,2013-01-01 16:30:00
3:00 AM,77,73,83,29.77,,South,12.7,,,,,180,2013-01-01 17:00:00
3:00 AM,77.0,73.4,89,29.77,6.2,South,12.7,-,N/A,Rain,Light Rain Showers,180,2013-01-01 17:00:00
3:30 AM,77.0,71.6,83,29.74,6.2,South,12.7,-,N/A,,Scattered Clouds,190,2013-01-01 17:30:00
4:00 AM,77,72,82,29.76,,South,12.7,,,,,190,2013-01-01 18:00:00
4:00 AM,77.0,73.4,89,29.74,6.2,South,12.7,-,N/A,,Scattered Clouds,190,2013-01-01 18:00:00
4:30 AM,77.0,71.6,83,29.74,6.2,South,10.4,-,N/A,,Scattered Clouds,190,2013-01-01 18:30:00
5:00 AM,78.8,73.4,83,29.77,6.2,South,10.4,-,N/A,,Scattered Clouds,180,2013-01-01 19:00:00
5:30 AM,77.0,73.4,89,29.77,3.1,SSE,8.1,-,N/A,Rain,Rain Showers,150,2013-01-01 19:30:00
6:00 AM,76,74,90,29.78,12,SSE,6.9,,,,Partly Cloudy,150,2013-01-01 20:00:00
6:00 AM,77.0,73.4,89,29.77,6.2,SSE,6.9,-,N/A,,Scattered Clouds,150,2013-01-01 20:00:00
6:30 AM,77.0,73.4,89,29.80,6.2,SSE,8.1,-,N/A,Rain,Light Rain Showers,160,2013-01-01 20:30:00
7:00 AM,78,73,80,29.81,,South,9.2,,,,,190,2013-01-01 21:00:00
7:00 AM,78.8,73.4,83,29.80,6.2,South,9.2,-,N/A,,Scattered Clouds,190,2013-01-01 21:00:00
7:30 AM,80.6,73.4,79,29.80,6.2,South,9.2,-,N/A,,Scattered Clouds,180,2013-01-01 21:30:00
8:00 AM,78.8,73.4,83,29.80,3.7,South,9.2,-,N/A,,Scattered Clouds,180,2013-01-01 22:00:00
8:17 AM,77.0,75.2,94,29.83,3.1,SSE,11.5,-,N/A,Rain,Light Rain Showers,150,2013-01-01 22:17:00
8:30 AM,77.0,75.2,94,29.83,3.7,South,8.1,-,N/A,Rain,Light Rain Showers,170,2013-01-01 22:30:00
9:00 AM,82,76,76,29.82,9,South,8.1,,,,Partly Cloudy,180,2013-01-01 23:00:00
9:00 AM,82.4,75.2,79,29.80,6.2,South,8.1,-,N/A,,Scattered Clouds,180,2013-01-01 23:00:00
9:30 AM,82.4,75.2,79,29.80,6.2,South,6.9,-,N/A,,Scattered Clouds,170,2013-01-01 23:30:00
10:00 AM,85,74,63,29.82,,SSE,8.1,,,,,160,2013-01-02 00:00:00
10:00 AM,86.0,75.2,70,29.80,6.2,SSE,8.1,-,N/A,,Scattered Clouds,160,2013-01-02 00:00:00
10:30 AM,86.0,73.4,66,29.80,6.2,SE,10.4,-,N/A,,Scattered Clouds,140,2013-01-02 00:30:00
11:00 AM,87.8,71.6,58,29.80,6.2,ESE,11.5,-,N/A,,Scattered Clouds,110,2013-01-02 01:00:00
11:30 AM,89.6,71.6,55,29.80,6.2,East,11.5,-,N/A,,Scattered Clouds,100,2013-01-02 01:30:00
12:00 PM,89,71,46,29.79,16,ESE,12.7,,,,Partly Cloudy,120,2013-01-02 02:00:00
12:00 PM,89.6,71.6,55,29.77,6.2,ESE,12.7,-,N/A,,Scattered Clouds,110,2013-01-02 02:00:00
12:30 PM,89.6,71.6,55,29.77,6.2,ESE,15.0,-,N/A,,Scattered Clouds,120,2013-01-02 02:30:00
1:00 PM,90,70,42,29.78,,ESE,16.1,,,,,120,2013-01-02 03:00:00
1:00 PM,89.6,69.8,52,29.77,6.2,ESE,16.1,-,N/A,,Scattered Clouds,120,2013-01-02 03:00:00
1:30 PM,89.6,71.6,55,29.74,6.2,SE,13.8,-,N/A,,Scattered Clouds,130,2013-01-02 03:30:00
2:00 PM,89.6,69.8,52,29.74,6.2,SE,15.0,-,N/A,,Scattered Clouds,130,2013-01-02 04:00:00
2:30 PM,89.6,69.8,52,29.74,6.2,SE,17.3,-,N/A,,Scattered Clouds,130,2013-01-02 04:30:00
3:00 PM,89,71,47,29.74,16,SE,18.4,,,,Partly Cloudy,130,2013-01-02 05:00:00
3:00 PM,89.6,71.6,55,29.74,6.2,SE,18.4,-,N/A,,Mostly Cloudy,130,2013-01-02 05:00:00
3:30 PM,89.6,71.6,55,29.74,6.2,ESE,17.3,-,N/A,,Scattered Clouds,120,2013-01-02 05:30:00
4:00 PM,88,72,49,29.74,,SE,17.3,,,,,140,2013-01-02 06:00:00
4:00 PM,87.8,71.6,58,29.71,6.2,SE,17.3,-,N/A,,Mostly Cloudy,140,2013-01-02 06:00:00
4:30 PM,86.0,71.6,62,29.71,6.2,SE,18.4,-,N/A,,Mostly Cloudy,130,2013-01-02 06:30:00
5:00 PM,86.0,71.6,62,29.71,6.2,SE,17.3,-,N/A,,Mostly Cloudy,130,2013-01-02 07:00:00
5:30 PM,84.2,71.6,66,29.74,6.2,SE,15.0,-,N/A,,Mostly Cloudy,130,2013-01-02 07:30:00
6:00 PM,83,72,62,29.75,,SE,16.1,,,,,130,2013-01-02 08:00:00
6:00 PM,84.2,71.6,66,29.74,6.2,SE,16.1,-,N/A,,Mostly Cloudy,130,2013-01-02 08:00:00
6:30 PM,82.4,73.4,74,29.74,6.2,SE,13.8,-,N/A,,Mostly Cloudy,130,2013-01-02 08:30:00
7:00 PM,82,73,67,29.77,,SE,15.0,,,,,130,2013-01-02 09:00:00
7:00 PM,82.4,73.4,74,29.77,6.2,SE,15.0,-,N/A,,Mostly Cloudy,130,2013-01-02 09:00:00
7:30 PM,82.4,73.4,74,29.77,6.2,SE,12.7,-,N/A,,Mostly Cloudy,140,2013-01-02 09:30:00
8:00 PM,80.6,73.4,79,29.77,6.2,SSE,9.2,-,N/A,,Mostly Cloudy,150,2013-01-02 10:00:00
8:30 PM,80.6,73.4,79,29.77,6.2,SSE,6.9,-,N/A,,Mostly Cloudy,160,2013-01-02 10:30:00
9:00 PM,80,73,75,29.80,,SSE,5.8,,,,,160,2013-01-02 11:00:00
9:00 PM,78.8,73.4,83,29.80,6.2,SSE,5.8,-,N/A,,Mostly Cloudy,160,2013-01-02 11:00:00
9:30 PM,80.6,73.4,79,29.80,6.2,South,5.8,-,N/A,,Mostly Cloudy,180,2013-01-02 11:30:00
10:00 PM,79,73,78,29.82,,South,6.9,,,,,170,2013-01-02 12:00:00
10:00 PM,78.8,73.4,83,29.80,6.2,South,6.9,-,N/A,,Mostly Cloudy,170,2013-01-02 12:00:00
10:30 PM,78.8,73.4,83,29.83,6.2,South,5.8,-,N/A,,Mostly Cloudy,190,2013-01-02 12:30:00
11:00 PM,78.8,73.4,83,29.83,6.2,South,6.9,-,N/A,,Mostly Cloudy,180,2013-01-02 13:00:00
11:30 PM,78.8,73.4,83,29.83,6.2,SSW,5.8,-,N/A,,Mostly Cloudy,200,2013-01-02 13:30:00